TimeMDT,TemperatureF,Dew PointF,Humidity,Sea Level PressureIn,VisibilityMPH,Wind Direction,Wind SpeedMPH,Gust SpeedMPH,PrecipitationIn,Events,Conditions,WindDirDegrees,DateUTC
12:53 AM,52.0,24.1,34,29.75,10.0,WSW,9.2,-,N/A,,Clear,250,2012-10-13 06:53:00
1:53 AM,46.9,24.1,41,29.75,10.0,West,5.8,-,N/A,,Clear,270,2012-10-13 07:53:00
2:53 AM,46.9,23.0,39,29.77,10.0,West,10.4,-,N/A,,Clear,280,2012-10-13 08:53:00
3:53 AM,48.0,23.0,37,29.79,10.0,WSW,10.4,-,N/A,,Mostly Cloudy,250,2012-10-13 09:53:00
4:53 AM,50.0,23.0,35,29.80,10.0,WNW,9.2,-,N/A,,Partly Cloudy,290,2012-10-13 10:53:00
5:53 AM,43.0,23.0,45,29.84,10.0,WSW,6.9,-,N/A,,Partly Cloudy,250,2012-10-13 11:53:00
6:53 AM,50.0,24.1,36,29.87,10.0,WSW,9.2,-,N/A,,Overcast,250,2012-10-13 12:53:00
7:53 AM,48.9,25.0,39,29.90,10.0,West,9.2,-,N/A,,Overcast,260,2012-10-13 13:53:00
8:53 AM,51.1,24.1,35,29.91,10.0,West,9.2,-,N/A,,Overcast,270,2012-10-13 14:53:00
9:53 AM,54.0,25.0,33,29.92,10.0,West,6.9,-,N/A,,Overcast,260,2012-10-13 15:53:00
10:53 AM,57.0,23.0,27,29.95,10.0,West,20.7,24.2,N/A,,Overcast,260,2012-10-13 16:53:00
11:53 AM,53.1,34.0,48,30.02,10.0,WNW,13.8,26.5,0.00,,Overcast,300,2012-10-13 17:53:00
12:53 PM,52.0,36.0,54,30.04,10.0,West,19.6,-,N/A,,Overcast,260,2012-10-13 18:53:00
1:53 PM,54.0,36.0,51,30.02,10.0,West,19.6,24.2,N/A,,Overcast,260,2012-10-13 19:53:00
2:53 PM,57.0,36.0,45,30.02,10.0,West,18.4,28.8,N/A,,Mostly Cloudy,260,2012-10-13 20:53:00
3:53 PM,62.1,36.0,38,30.01,10.0,West,24.2,32.2,N/A,,Mostly Cloudy,260,2012-10-13 21:53:00
4:53 PM,60.1,35.1,39,30.02,10.0,West,19.6,29.9,N/A,,Clear,270,2012-10-13 22:53:00
6:53 PM,55.9,34.0,44,30.06,10.0,WSW,13.8,-,N/A,,Partly Cloudy,250,2012-10-14 00:53:00
8:53 PM,55.9,33.1,42,30.10,10.0,WSW,19.6,-,N/A,,Mostly Cloudy,240,2012-10-14 02:53:00
11:53 PM,52.0,33.1,49,30.11,10.0,WSW,17.3,-,N/A,,Scattered Clouds,250,2012-10-14 05:53:00